Temperature
15 14 13 13 13 12 12 11 11 10 10 10 9 9 8 8 8 8 8 7 7 7 7 7 8 8 9 9 9 9 10 10 10 10 10 9 9 9 10 10 11 11 11
17 15 13 13 13 13 12 11 11 10 10 9 9 9 8 8 8 8 7 7 7 7 7 7 7 8 8 9 9 9 9 10 10 10 10 9 8 8 8 9 9 9 9
17 16 14 13 13 13 12 12 11 11 10 9 9 8 8 8 8 7 7 7 7 7 7 7 7 8 8 8 8 9 9 10 10 10 9 9 8 8 8 8 8 8 8
17 16 15 14 13 13 12 12 12 11 10 9 9 8 8 8 8 7 7 7 7 7 7 7 7 8 8 8 8 8 9 10 9 9 9 9 8 7 7 7 7 7 7
17 16 15 14 13 12 12 12 12 11 10 10 9 9 8 8 8 7 7 7 8 8 8 8 8 8 8 8 8 8 9 9 9 9 9 8 7 6 6 6 6 7 7
18 16 15 14 13 12 12 12 12 11 11 10 9 9 8 8 8 8 8 8 8 8 8 8 8 8 8 8 8 8 9 9 9 9 9 8 7 6 6 6 6 6 6
18 17 15 13 12 12 12 12 12 11 11 10 10 9 9 9 8 9 9 8 8 8 8 8 8 8 8 8 8 8 9 9 9 8 8 8 7 6 6 6 5 5 5
18 17 15 13 12 12 12 11 12 11 11 11 10 10 9 9 9 9 9 9 9 9 9 9 9 8 8 8 8 8 9 9 8 8 8 8 6 5 5 6 5 5 5
17 16 15 13 12 11 11 11 11 11 11 11 10 10 10 10 10 10 10 9 9 9 9 9 9 9 8 8 8 8 8 8 8 8 8 8 7 6 5 6 6 5 5
15 15 15 13 12 11 11 11 11 11 11 11 11 10 10 10 10 10 10 10 10 9 9 9 9 9 9 8 8 8 8 8 8 8 8 8 7 6 6 6 6 6 5
14 14 14 13 13 12 11 11 10 11 11 11 11 11 11 11 10 10 10 10 10 9 9 9 9 9 9 8 8 8 8 8 8 8 8 8 7 7 6 6 6 6 6
16 15 14 13 13 12 11 11 10 10 11 11 11 11 11 11 10 10 10 10 10 9 9 9 9 9 9 9 9 8 8 8 8 8 8 8 7 7 7 6 6 6 6
17 16 15 14 13 12 12 11 11 11 11 11 11 11 11 10 10 10 10 10 10 9 9 9 9 9 9 9 8 8 8 8 8 8 8 8 7 7 7 6 6 6 5
16 16 16 14 13 12 12 11 11 11 11 11 11 11 11 11 10 10 10 10 10 9 9 9 9 9 8 8 8 8 8 8 8 8 8 7 7 7 7 6 6 5 5
16 16 16 15 14 13 12 12 11 11 11 11 11 11 11 11 10 10 10 10 9 9 9 9 8 8 8 8 8 8 8 8 8 8 7 7 7 7 7 6 6 5 5
17 16 16 15 14 13 13 12 12 12 11 11 11 11 11 10 10 10 10 10 9 9 9 8 8 8 8 8 8 8 8 8 7 7 7 7 7 7 6 6 6 5 5
18 17 16 15 14 14 13 13 12 12 11 11 11 11 10 10 10 10 10 9 9 9 8 8 8 8 8 8 8 8 8 7 7 7 7 7 7 6 6 6 6 5 5
18 17 16 15 14 14 13 13 12 12 11 11 11 11 10 10 10 9 9 9 9 8 8 8 8 8 8 8 8 7 7 7 7 7 7 7 6 6 6 6 6 5 5
18 17 16 15 14 14 13 12 11 11 11 11 10 10 10 10 10 9 9 9 9 8 8 8 8 8 7 7 7 7 7 7 7 6 7 6 6 6 6 6 5 5 5
18 17 16 15 14 13 12 11 10 10 10 10 10 10 9 9 9 9 9 8 8 8 7 7 7 7 7 7 6 6 6 6 6 7 7 6 6 6 6 6 5 5 5
18 17 16 15 14 13 12 11 11 11 10 10 10 10 9 9 9 8 8 8 7 7 7 7 7 6 6 6 5 5 6 6 6 7 7 7 7 6 6 6 5 5 4
17 17 16 15 15 14 13 13 12 11 11 10 10 9 9 9 8 8 7 7 7 7 7 6 6 6 6 5 5 4 4 5 7 7 7 7 7 6 6 5 5 5 4
17 16 16 15 15 14 13 12 11 11 10 10 10 10 9 9 8 8 7 7 7 6 6 6 6 5 5 5 4 4 3 4 5 6 6 6 6 6 6 5 5 4 4
16 15 15 14 14 13 13 12 11 11 11 11 10 10 9 9 8 8 7 7 6 6 6 6 5 5 4 4 4 4 3 3 3 4 4 4 4 5 5 5 4 4 4
15 15 14 14 13 13 12 11 11 11 10 10 9 9 9 8 8 7 7 6 6 6 6 5 5 4 4 4 3 3 3 2 2 1 1 2 3 3 4 4 3 3 3
14 14 14 13 13 12 12 11 11 10 10 9 9 9 8 8 8 7 7 6 6 5 5 5 5 4 4 3 3 2 2 1 1 1 -0 0 1 2 2 2 2 2 2
Wind_Speed
10 21 26 24 23 21 19 18 17 16 15 14 13 13 13 13 13 13 13 13 13 14 15 15 15 16 16 16 16 17 17 18 19 20 20 20 21 21 21 21 20 20 22
15 27 28 26 24 23 21 19 18 17 16 15 14 13 13 13 12 12 12 12 12 13 14 14 14 15 15 15 15 16 16 17 17 18 19 18 18 20 20 20 20 19 21
19 28 28 28 26 24 22 21 19 18 17 15 15 14 13 13 12 12 12 12 12 12 12 13 13 14 14 14 14 15 15 16 16 17 18 18 15 18 19 19 19 20 20
24 27 27 28 27 25 23 22 20 19 18 16 15 14 14 13 12 12 12 11 11 11 11 12 12 12 13 13 13 13 14 14 14 15 16 16 14 16 17 17 18 18 18
23 25 27 29 27 26 24 23 21 20 19 17 16 15 14 13 13 12 12 11 11 11 11 11 11 11 11 11 11 12 13 13 12 14 16 16 13 14 15 16 16 16 17
18 24 27 29 28 26 25 24 22 21 20 18 17 16 15 14 13 12 12 11 11 10 10 10 9 10 10 10 10 10 11 11 10 12 14 15 12 12 13 14 14 14 15
17 23 26 29 28 26 25 24 23 22 21 19 18 17 16 15 14 13 12 11 11 10 9 9 8 8 8 8 9 9 10 10 8 8 10 13 10 11 12 12 12 13 13
18 24 25 29 28 27 26 25 24 22 21 20 19 18 17 16 15 14 13 12 11 10 9 8 7 7 7 7 7 8 9 8 6 4 7 10 8 9 10 10 11 11 12
19 20 21 25 27 27 26 25 24 23 22 21 20 19 18 17 16 15 13 12 11 10 9 8 7 6 6 6 6 7 8 8 7 3 4 7 6 8 8 9 9 10 10
12 15 18 20 23 24 25 26 25 24 23 22 21 20 18 17 16 16 15 13 12 11 10 9 7 6 6 5 5 6 6 7 6 3 2 5 5 6 7 7 8 8 9
13 12 16 16 20 22 22 24 25 24 24 23 21 21 19 17 16 15 15 14 13 12 11 9 8 7 7 5 4 5 5 6 6 4 2 4 4 4 5 5 6 6 7
19 17 13 16 18 20 21 22 21 22 22 22 20 20 19 17 16 14 15 16 15 13 12 11 10 9 7 6 5 5 6 6 6 6 4 3 2 3 3 4 4 5 5
18 17 17 16 19 20 18 18 17 18 19 20 21 21 19 18 16 15 15 15 14 14 12 11 9 8 8 8 8 7 8 8 8 7 6 5 4 3 3 3 3 4 4
13 19 18 16 17 20 19 17 16 16 16 17 20 22 19 16 14 14 15 15 13 13 12 12 10 10 10 11 11 10 10 10 10 9 9 7 6 5 5 5 4 4 4
15 18 18 16 17 18 17 17 17 17 18 19 20 22 22 16 13 14 15 16 16 15 15 14 13 12 12 12 13 13 12 13 12 12 11 10 9 8 8 7 6 6 6
19 19 17 20 18 18 16 14 15 19 19 20 21 22 23 20 16 15 14 15 16 18 18 16 15 13 12 12 12 13 14 14 14 14 14 13 12 11 11 10 9 9 8
19 18 18 19 17 17 16 17 18 20 21 20 22 23 24 23 20 18 14 14 17 19 18 16 14 12 9 9 9 13 14 15 15 16 16 16 15 14 14 13 12 11 11
16 16 18 18 18 18 16 15 17 19 21 21 22 23 25 25 23 20 15 14 18 18 16 11 7 6 7 7 7 7 11 13 15 17 17 17 17 16 16 16 15 14 13
17 16 17 17 18 17 14 14 15 17 19 21 22 22 24 26 25 22 17 17 18 15 13 11 7 7 7 8 8 7 7 9 12 16 16 18 19 19 19 18 17 17 16
13 13 15 16 15 13 10 8 8 10 11 17 20 22 23 24 25 23 18 16 16 9 9 8 8 8 7 7 8 8 7 8 11 12 15 17 19 20 21 20 19 18 18
10 12 15 16 14 12 9 10 11 13 10 8 14 20 23 24 24 22 16 14 14 11 12 12 9 9 8 4 3 5 6 9 13 12 13 13 16 20 20 21 20 20 19
10 12 13 15 14 14 14 12 8 7 7 8 9 15 21 23 23 22 17 11 11 10 11 11 11 7 7 7 5 3 5 6 8 13 12 12 12 15 17 20 21 20 20
7 10 12 14 14 14 12 7 4 3 2 5 8 9 13 20 22 22 20 17 12 13 14 14 13 12 11 9 8 6 5 8 4 4 8 10 10 10 11 16 20 21 21
5 6 8 9 11 11 10 9 11 11 13 12 10 9 10 17 20 22 21 19 14 13 15 15 14 13 12 11 7 10 8 4 4 5 4 5 8 11 11 12 16 20 21
2 2 4 5 7 8 10 12 12 14 14 9 7 9 11 11 16 20 20 17 15 14 16 15 14 15 15 15 11 7 11 10 8 7 9 5 4 7 9 10 11 15 19
5 3 1 3 5 7 9 11 13 15 14 11 10 11 10 10 11 14 16 16 16 15 17 17 17 17 17 17 15 12 9 7 9 11 16 12 8 6 7 8 10 13 18
Wind_Direction
186 179 176 169 167 164 162 158 154 150 144 140 134 129 124 119 113 107 101 95 89 86 83 80 77 73 70 70 69 69 69 66 60 53 48 54 61 62 61 61 57 51 53
165 174 175 171 169 168 166 162 159 155 151 147 142 137 132 127 121 115 109 102 96 91 87 84 80 76 73 72 71 71 72 70 64 55 44 37 52 61 60 57 57 55 53
161 171 174 173 171 170 168 165 162 160 157 153 149 145 140 135 129 122 116 110 103 96 91 88 84 79 76 75 75 75 75 73 66 53 37 25 36 60 60 58 56 54 52
163 170 172 174 173 172 170 168 166 164 162 159 155 152 148 143 138 132 125 119 111 104 98 93 88 83 79 78 79 80 79 76 66 47 29 21 27 58 59 57 55 54 52
166 171 173 176 176 175 173 171 170 168 166 164 161 158 154 150 145 140 134 128 121 114 106 99 94 89 84 81 82 85 84 79 64 39 25 19 20 56 59 56 55 53 51
168 171 176 178 178 177 176 174 173 172 170 168 166 164 161 157 153 148 143 138 132 125 117 108 101 94 89 85 86 92 94 86 64 40 22 14 13 55 59 56 54 53 51
168 171 180 180 181 180 179 178 177 176 174 173 171 170 167 164 160 156 152 148 143 137 129 120 111 103 96 91 90 98 105 100 83 44 16 6 13 55 56 53 51 51 49
168 172 182 183 184 184 183 182 180 179 179 177 176 175 173 170 167 165 163 159 155 149 143 135 126 117 109 102 99 103 109 111 107 60 7 355 20 53 54 51 48 47 46
169 174 185 187 187 187 187 186 184 184 183 182 181 180 179 177 176 174 172 170 167 162 158 152 146 138 128 118 114 116 115 120 125 108 353 343 24 47 51 48 44 43 42
172 180 187 188 186 188 189 190 189 188 187 187 186 185 184 184 184 182 180 180 178 175 173 169 166 162 156 145 135 134 126 129 142 149 329 330 22 38 44 42 38 36 36
183 188 188 188 185 186 188 193 192 193 192 191 190 189 188 187 187 187 183 188 188 187 186 185 184 183 182 184 179 159 145 149 165 182 259 311 12 22 32 33 29 27 27
191 192 191 189 185 184 189 194 193 193 194 192 190 189 186 182 185 187 191 198 198 197 198 198 199 198 194 200 209 188 176 180 185 199 236 282 328 350 5 11 11 10 12
191 190 193 191 187 186 189 191 191 190 190 189 187 186 181 182 187 196 201 208 207 203 203 208 211 204 203 208 214 210 204 204 205 211 232 257 276 298 315 326 335 340 346
187 195 194 191 189 190 190 191 189 188 189 187 187 185 180 183 192 200 205 209 206 201 202 211 215 216 219 222 223 222 219 218 219 222 232 247 260 271 281 288 294 302 311
194 195 195 192 192 192 192 193 195 195 194 191 189 190 188 189 196 201 206 208 209 207 207 211 217 221 225 228 228 226 224 225 226 228 233 244 253 260 268 273 275 280 286
204 198 193 195 194 192 196 199 200 199 196 193 196 197 196 197 198 199 205 208 211 211 212 213 216 217 223 227 230 228 228 230 232 233 235 240 249 254 259 264 266 269 274
206 199 194 195 194 195 198 200 202 201 199 201 203 202 202 203 202 202 206 211 214 214 214 216 220 221 225 227 232 233 232 233 234 235 236 237 242 249 255 257 260 262 266
203 200 198 197 195 199 200 200 203 201 202 207 206 206 207 208 206 205 209 214 213 210 209 209 211 213 225 225 230 234 235 235 237 237 237 237 238 241 246 252 254 257 261
202 198 197 198 197 198 198 198 200 200 205 208 207 209 210 210 208 208 214 216 209 207 209 215 210 208 220 227 234 240 239 238 239 239 237 236 236 237 239 244 249 252 256
198 196 198 200 200 192 188 189 194 203 208 208 209 211 208 209 209 210 215 213 205 205 212 214 216 212 218 222 240 250 244 241 240 239 239 238 235 235 235 236 240 246 250
188 193 197 200 199 188 188 196 202 213 210 210 213 212 210 210 208 210 218 211 206 214 218 214 214 218 225 192 229 275 270 245 243 241 237 235 234 232 230 230 232 235 241
195 200 200 202 199 198 204 204 203 207 210 211 214 216 214 213 212 214 217 214 210 216 220 214 209 217 218 189 190 219 288 292 245 238 230 230 232 228 227 228 227 228 231
207 207 207 206 203 203 200 188 183 183 240 216 218 222 217 216 217 219 219 218 214 215 224 220 212 214 224 210 196 185 210 246 293 263 235 231 225 221 225 226 226 228 229
237 218 215 209 206 203 192 192 197 210 224 226 223 223 216 216 219 221 222 220 219 220 225 223 217 217 218 225 215 221 224 196 226 291 271 240 229 226 223 224 226 226 227
325 249 220 210 210 202 199 204 209 224 234 237 227 227 226 222 222 223 222 222 224 224 226 224 220 216 219 226 220 209 228 236 230 243 270 270 258 236 226 221 223 225 226
5 7 341 212 224 211 207 212 217 229 236 240 237 235 236 233 229 226 224 225 227 228 228 226 224 222 223 225 225 218 209 212 215 222 243 251 248 240 228 223 223 226 226
Height
1551 1554 1557 1559 1561 1563 1564 1565 1566 1567 1567 1568 1568 1568 1568 1568 1568 1567 1567 1566 1566 1566 1565 1563 1562 1561 1560 1559 1558 1557 1557 1556 1556 1556 1555 1556 1556 1555 1554 1553 1553 1552 1552
1549 1551 1555 1557 1560 1561 1563 1564 1565 1566 1566 1567 1567 1567 1567 1567 1567 1567 1567 1566 1566 1566 1565 1564 1563 1562 1561 1560 1559 1558 1558 1557 1557 1556 1556 1556 1556 1556 1555 1554 1554 1554 1553
1547 1550 1552 1555 1558 1560 1561 1563 1564 1565 1565 1566 1566 1567 1567 1567 1567 1567 1567 1566 1566 1566 1565 1564 1563 1562 1561 1560 1560 1559 1558 1558 1558 1557 1557 1556 1556 1557 1556 1555 1555 1554 1553
1546 1548 1550 1553 1556 1558 1560 1561 1562 1563 1564 1565 1565 1566 1566 1566 1566 1566 1566 1566 1566 1565 1565 1564 1563 1563 1562 1561 1561 1560 1559 1559 1558 1558 1557 1557 1556 1557 1556 1556 1555 1554 1554
1545 1547 1549 1552 1554 1556 1558 1560 1561 1562 1563 1564 1564 1565 1565 1566 1566 1566 1566 1566 1565 1565 1565 1564 1564 1563 1562 1562 1561 1560 1560 1559 1559 1558 1558 1557 1557 1557 1556 1556 1555 1554 1554
1543 1545 1547 1550 1552 1554 1556 1558 1559 1561 1562 1562 1563 1564 1564 1565 1565 1565 1565 1565 1565 1565 1565 1564 1564 1563 1562 1562 1561 1561 1560 1560 1559 1559 1558 1558 1557 1558 1557 1556 1555 1555 1554
1541 1543 1546 1548 1551 1553 1555 1556 1558 1559 1560 1561 1562 1563 1563 1564 1564 1564 1564 1564 1564 1564 1564 1564 1564 1563 1563 1562 1561 1561 1560 1560 1560 1559 1558 1558 1557 1557 1557 1556 1555 1555 1554
1540 1541 1544 1546 1549 1551 1553 1555 1556 1558 1559 1560 1561 1562 1562 1563 1563 1563 1564 1564 1564 1564 1564 1564 1564 1563 1563 1562 1561 1561 1560 1560 1560 1559 1558 1558 1557 1557 1556 1556 1555 1554 1553
1538 1540 1542 1544 1546 1549 1551 1553 1554 1556 1557 1558 1559 1560 1561 1562 1562 1562 1563 1563 1563 1563 1563 1563 1563 1563 1562 1562 1561 1561 1560 1560 1559 1559 1558 1558 1557 1557 1556 1555 1554 1554 1553
1536 1538 1539 1541 1543 1546 1548 1550 1552 1554 1555 1556 1557 1558 1559 1560 1561 1561 1562 1562 1562 1562 1562 1562 1562 1562 1562 1561 1561 1560 1560 1559 1559 1558 1558 1557 1557 1556 1556 1555 1554 1553 1552
1532 1534 1536 1538 1540 1542 1545 1547 1549 1551 1553 1554 1555 1556 1557 1558 1559 1560 1560 1561 1561 1561 1561 1561 1561 1561 1561 1560 1560 1559 1559 1559 1558 1558 1557 1556 1556 1555 1554 1554 1553 1552 1551
1527 1529 1532 1534 1536 1539 1542 1544 1546 1547 1549 1551 1552 1554 1555 1556 1557 1558 1559 1559 1559 1560 1560 1560 1559 1559 1559 1559 1559 1558 1558 1558 1557 1557 1556 1555 1555 1554 1553 1552 1552 1551 1550
1523 1525 1527 1530 1533 1535 1537 1540 1542 1544 1546 1547 1549 1551 1552 1554 1555 1555 1556 1557 1557 1558 1558 1558 1558 1557 1557 1557 1557 1557 1556 1556 1556 1555 1555 1554 1553 1552 1552 1551 1550 1549 1548
1519 1521 1523 1526 1528 1531 1534 1536 1538 1539 1541 1543 1545 1547 1549 1550 1551 1552 1553 1554 1555 1555 1555 1555 1555 1555 1555 1555 1554 1554 1554 1554 1553 1553 1552 1552 1551 1550 1549 1548 1548 1547 1546
1514 1516 1519 1522 1524 1527 1529 1531 1533 1535 1537 1539 1542 1544 1545 1547 1548 1549 1550 1551 1552 1552 1553 1553 1553 1553 1552 1552 1551 1551 1551 1550 1550 1550 1549 1549 1548 1547 1547 1546 1545 1544 1543
1509 1511 1514 1516 1519 1522 1524 1526 1528 1531 1533 1535 1537 1539 1541 1543 1544 1546 1547 1548 1548 1549 1550 1550 1550 1549 1549 1548 1548 1547 1547 1547 1546 1546 1546 1545 1545 1544 1543 1542 1542 1541 1540
1504 1507 1509 1511 1515 1517 1519 1522 1524 1526 1529 1530 1532 1535 1537 1538 1540 1541 1542 1543 1544 1545 1546 1546 1546 1545 1545 1544 1544 1544 1543 1542 1542 1542 1541 1541 1540 1540 1539 1538 1538 1537 1536
1500 1503 1505 1508 1509 1512 1514 1517 1519 1521 1523 1525 1527 1529 1531 1533 1535 1536 1537 1538 1540 1541 1541 1541 1541 1540 1540 1540 1539 1539 1538 1538 1537 1537 1536 1535 1535 1535 1534 1534 1533 1532 1532
1496 1499 1501 1504 1505 1507 1510 1513 1515 1516 1518 1519 1521 1523 1525 1527 1529 1530 1531 1532 1534 1535 1535 1535 1535 1535 1534 1534 1534 1533 1532 1531 1531 1530 1529 1529 1529 1529 1529 1528 1528 1527 1526
1493 1496 1499 1501 1502 1505 1507 1509 1511 1511 1512 1514 1515 1516 1518 1520 1522 1524 1524 1526 1527 1528 1528 1528 1528 1528 1528 1529 1528 1526 1525 1524 1523 1522 1522 1522 1522 1522 1522 1522 1522 1521 1520
1491 1493 1495 1497 1499 1501 1502 1504 1505 1505 1506 1508 1509 1510 1512 1514 1515 1516 1517 1518 1520 1520 1520 1521 1522 1521 1521 1522 1521 1517 1515 1515 1513 1513 1514 1514 1514 1514 1514 1515 1515 1515 1514
1489 1491 1492 1493 1495 1497 1498 1500 1501 1502 1502 1503 1505 1505 1506 1507 1508 1509 1510 1510 1511 1512 1512 1513 1513 1513 1513 1514 1514 1512 1508 1504 1501 1503 1503 1503 1504 1505 1506 1506 1507 1507 1507
1489 1489 1490 1491 1492 1494 1495 1497 1497 1498 1497 1497 1497 1498 1499 1500 1501 1502 1502 1502 1503 1503 1503 1504 1505 1505 1504 1505 1505 1506 1503 1496 1495 1492 1492 1493 1495 1496 1497 1498 1499 1499 1500
1488 1488 1488 1489 1490 1491 1492 1492 1492 1492 1490 1490 1492 1493 1493 1494 1493 1493 1494 1494 1493 1493 1493 1494 1495 1494 1495 1494 1494 1493 1494 1493 1492 1486 1484 1485 1486 1486 1488 1490 1490 1491 1492
1489 1488 1487 1487 1487 1488 1489 1489 1488 1487 1486 1487 1487 1486 1486 1486 1485 1485 1485 1485 1484 1483 1483 1483 1484 1483 1483 1483 1483 1483 1483 1482 1482 1481 1476 1474 1476 1476 1479 1481 1482 1483 1484
1489 1488 1487 1486 1486 1486 1486 1485 1485 1483 1483 1482 1480 1479 1478 1478 1477 1476 1476 1475 1474 1473 1472 1472 1473 1472 1472 1471 1472 1471 1471 1470 1469 1469 1468 1465 1465 1467 1470 1471 1472 1473 1475